Norwegian Jewel — C6TX6 — position and weather

sailwx.info

Track history (hours):
 
Tides and Currents Weather Stations Pressure Air Temp Water Temp Dewpoint Dewpoint Depression Visibility Wind Speed Wind Dir Waves Ship Positions

Norwegian Jewel

Last reported at 2018-May-23 14:19 UTC. Time now 2018-May-24 15:57 UTC.
Position N 58°08' W 135°28'.

Type: Ship. MMSI: 311827000.

Date/timePositionNaut miles runAvg speedWind from/ knotsBaromVisibWave heightAir tempDewpointWater temp
2018-May-23 14:19N 58°08' W 135°28'0 0.4
2018-May-23 13:59N 58°08' W 135°28'4 7.3
2018-May-23 13:27N 58°09' W 135°21'  
2018-May-21 02:33N 58°10' W 135°18'1 8.0
2018-May-21 02:26N 58°10' W 135°19'4 7.8
2018-May-21 01:59N 58°12' W 135°25'4 7.6
2018-May-21 01:29N 58°14' W 135°31'4 7.6
2018-May-21 01:00N 58°16' W 135°37'4 8.0
2018-May-21 00:30N 58°17' W 135°44'4 8.4
2018-May-21 00:00N 58°19' W 135°52'4 7.9
2018-May-20 23:30N 58°21' W 135°57'4 8.4
2018-May-20 23:00N 58°25' W 135°60'611.1
2018-May-20 22:30N 58°30' W 136°04'814.9
2018-May-20 22:00N 58°38' W 136°03'714.7
2018-May-20 21:30N 58°43' W 136°12'917.6
2018-May-20 20:59N 58°48' W 136°27'5 0.9
2018-May-20 15:55N 58°51' W 136°34'918.7
2018-May-20 15:26N 58°46' W 136°20'818.7
2018-May-20 15:00N 58°40' W 136°10'917.9
2018-May-20 14:30N 58°31' W 136°04'714.5
2018-May-20 14:00N 58°25' W 135°57'612.5
2018-May-20 13:30N 58°20' W 136°04'610.6
2018-May-20 12:58N 58°18' W 136°14'2410.5
2018-May-20 10:39N 58°04' W 136°51'  
Track history (hours):
 
Tides and Currents Weather Stations Pressure Air Temp Water Temp Dewpoint Dewpoint Depression Visibility Wind Speed Wind Dir Waves Ship Positions

Norwegian Jewel

Last reported at 2018-May-23 14:19 UTC. Time now 2018-May-24 15:57 UTC.
Position N 58°08' W 135°28'.

Type: Ship. MMSI: 311827000.

Date/timePositionNaut miles runAvg speedWind from/ knotsBaromVisibWave heightAir tempDewpointWater temp
2018-May-23 14:19N 58°08' W 135°28'0 0.4
2018-May-23 13:59N 58°08' W 135°28'4 7.3
2018-May-23 13:27N 58°09' W 135°21'  
2018-May-21 02:33N 58°10' W 135°18'1 8.0
2018-May-21 02:26N 58°10' W 135°19'4 7.8
2018-May-21 01:59N 58°12' W 135°25'4 7.6
2018-May-21 01:29N 58°14' W 135°31'4 7.6
2018-May-21 01:00N 58°16' W 135°37'4 8.0
2018-May-21 00:30N 58°17' W 135°44'4 8.4
2018-May-21 00:00N 58°19' W 135°52'4 7.9
2018-May-20 23:30N 58°21' W 135°57'4 8.4
2018-May-20 23:00N 58°25' W 135°60'611.1
2018-May-20 22:30N 58°30' W 136°04'814.9
2018-May-20 22:00N 58°38' W 136°03'714.7
2018-May-20 21:30N 58°43' W 136°12'917.6
2018-May-20 20:59N 58°48' W 136°27'5 0.9
2018-May-20 15:55N 58°51' W 136°34'918.7
2018-May-20 15:26N 58°46' W 136°20'818.7
2018-May-20 15:00N 58°40' W 136°10'917.9
2018-May-20 14:30N 58°31' W 136°04'714.5
2018-May-20 14:00N 58°25' W 135°57'612.5
2018-May-20 13:30N 58°20' W 136°04'610.6
2018-May-20 12:58N 58°18' W 136°14'2410.5
2018-May-20 10:39N 58°04' W 136°51'  

Dump ship's entire track history